sat.trackr.live / text

‹ back to catalog

STARLINK-31503

NORAD 59200 · 2024-045Y

PAYLOAD ACTIVE UNKNOWN

§ Identity

Operator
Country
US
Launch date
2024-03-10
Launch site
AFETR
Launch vehicle
Mass (kg)
RCS (m²)

Purposes: comms

External: N2YO · Heavens-Above · Gunter

§ Orbital elements

Epoch: 2026-09-19T21:28:03.834048Z

Period
94.27 min
Inclination
43.0015°
Eccentricity
0.0002161
Mean motion
15.27585215 rev/d
Perigee alt
481.6 km
Apogee alt
484.5 km
Semi-major
6,861.2 km
B*
6.4209e-5
RAAN
75.6708°
Arg perigee
255.8761°
Mean anomaly
104.1850°
Rev number
14,286

§ Raw data

STARLINK-315031 59200U 24045Y   26262.89448882  .00001505  00000+0  64209-4 0  99952 59200  43.0015  75.6708 0002161 255.8761 104.1850 15.27585215142869

JSON: /api/v1/satellites/59200 · /tle

For live sub-satellite position, see the globe view (requires WebGL).

§ Visibility from observer

Set your observer location to see the next 7 days of passes ≥ 10°. The values pass through the URL so the page stays shareable.

No JS? Fill the form by hand. The geolocation button needs JavaScript.